Regional Weather Roundup
Issued by NWS Sterling, VA

Home | Current Version | Previous Version | Graphics & Text | Print | Product List | Glossary On
Versions: 1 2 3 4 5 6 7 8 9 10 11 12 13 14 15 16 17 18 19 20 21 22 23 24 25 26 27 28 29 30 31 32 33 34 35 36 37 38 39 40 41 42 43 44 45 46 47 48 49 50
000
ASUS41 KLWX 180610
RWRLWX

REGIONAL WEATHER ROUNDUP
NATIONAL WEATHER SERVICE BALTIMORE MD/WASHINGTON DC
100 AM EST WED JAN 18 2017

Note: "FAIR" indicates few or no clouds below 12,000 feet
with no significant weather and/or obstructions to visibility.
 TC=TEMPERATURE CELSIUS

 * =Non NWS site. Station does not report precipitation (e.g. rain,
    snow, etc.), thunder, or fog.

DCZ001-MDZ009-015-VAZ040>042-051-053>054-180700-
WASHINGTON METRO

CITY           SKY/WX    TMP DP  RH WIND       PRES   REMARKS
WASHINGTON NAT FOG       45  45 100 NE8       29.88S VSB 1/16
DULLES         FOG       45  44  97 CALM      29.87F VSB 3/4
ANDREWS AFB    FOG       45  45 100 N3        29.86F VSB 1
FT BELVOIR     FOG       43  42  97 CALM      29.87F VSB 1/2
QUANTICO       CLOUDY    58  55  90 W12       29.87F
LEESBURG*      CLOUDY    46  46 100 N3        29.88S FOG
GAITHERSBURG*  CLOUDY    50  46  87 CALM      29.91S

$$

MDZ006>007-011-014-180700-
BALTIMORE METRO

CITY           SKY/WX    TMP DP  RH WIND       PRES   REMARKS
BWI AIRPORT    FOG       44  44 100 CALM      29.88F VSB 1/4
MD SCIENCE CTR   N/A     46  43  89 MISG      29.89F
ANNAPOLIS      CLOUDY    45  43  93 N7        29.88S FOG
FORT MEADE*    CLOUDY    43  43 100 CALM      29.90F

$$

MDZ012-015-019>023-180700-
MARYLAND EASTERN SHORE

CITY           SKY/WX    TMP DP  RH WIND       PRES   REMARKS
OCEAN CITY     MOCLDY    54  53  97 SW9       29.88F
SALISBURY      PTCLDY    55  52  89 SW14      29.87F
BAY BRIDGE AP* FOG       39  39 100 N5        29.89R VSB 1/4
CAMBRIDGE*     CLOUDY    45  45 100 CALM      29.87F
EASTON*        FOG       50  49  95 CALM      29.91F VSB 1/4

$$

MDZ017>025-180700-
SOUTHERN MARYLAND

CITY           SKY/WX    TMP DP  RH WIND       PRES   REMARKS
PATUXENT RIVER CLOUDY    57  54  89 SW15G24   29.86F
ST INIGOES     CLOUDY    55  52  89 SW12      29.87F
LEONARDTOWN*   CLOUDY    55  52  88 SW13      29.88F

$$

MDZ003>005-180700-
NORTH CENTRAL MARYLAND

CITY           SKY/WX    TMP DP  RH WIND       PRES   REMARKS
FREDERICK*     FOG       41  41 100 N3        29.91F VSB 1/2
HAGERSTOWN APT CLOUDY    40  37  89 NW8       29.88F FOG
WESTMINSTER*   FOG       41  41 100 CALM      29.87F VSB 1/4

$$

MDZ501>502-180700-
WESTERN MARYLAND

CITY           SKY/WX    TMP DP  RH WIND       PRES   REMARKS
OAKLAND*         N/A     45  45 100 W10G25    29.90R
CUMBERLAND*    CLOUDY    41  41 100 CALM      29.92R VSB 1/4

$$

VAZ025>031-180700-
SHENANDOAH VALLEY

CITY           SKY/WX    TMP DP  RH WIND       PRES   REMARKS
WINCHESTER*    FOG       39  37  93 CALM      29.88S VSB 1/2
FRONT ROYAL*   CLOUDY    39  39 100 N3        29.87S VSB<1/4
LURAY*         CLOUDY    55  54  94 SW10      29.85F
NEW MARKET*    CLOUDY    52  49  92 SW6       29.85F
STAUNTON*      CLOUDY    50  50  98 S3        29.89F
WAYNESBORO*    CLOUDY    56  53  88 SW9       29.88F

$$

WVZ021-048>050-054>055-180700-
EASTERN WEST VIRGINIA PANHANDLE

CITY           SKY/WX    TMP DP  RH WIND       PRES   REMARKS
MARTINSBURG    FOG       40  39  97 CALM      29.88F VSB 1/4
PETERSBURG*    MOCLDY    63  48  58 W17G23    29.86R

$$

VAZ036>039-050-180700-
CENTRAL FOOTHILLS

CITY           SKY/WX    TMP DP  RH WIND       PRES   REMARKS
CHARLOTTESVILL CLOUDY    54  52  93 S6        29.87F
CULPEPER*      CLOUDY    52  52  99 S3        29.87F
ORANGE*          N/A     54  54 100 CALM      29.89F
GORDONSVILLE*  CLOUDY    54  53  97 SW9       29.87F
WARRENTON*     CLOUDY    54  50  86 S7        29.86F

$$

VAZ055>057-180700-
NORTH AND CENTRAL PIEDMONT

CITY           SKY/WX    TMP DP  RH WIND       PRES   REMARKS
FREDERICKSBRG* CLOUDY    58  55  91 SW10      29.87F
STAFFORD*      CLOUDY    55  54  96 SW6       29.91F

$$

NCZ024-NYZ072-PAZ021-071-VAZ022-071-180700-
OTHER REGIONAL OBSERVATIONS

CITY           SKY/WX    TMP DP  RH WIND       PRES   REMARKS
NEW YORK CITY  CLOUDY    38  37  97 E9        29.93F FOG
PHILADELPHIA   HVY RAIN  43  41  93 SE5       29.90F FOG
PITTSBURGH     CLOUDY    49  42  77 W13G22    29.91R
ROANOKE        CLOUDY    54  54 100 SE6       29.95F
RICHMOND       LGT RAIN  55  54  96 S3        29.93F FOG
RALEIGH        CLOUDY    61  56  83 SW12      29.98F

$$

ANZ530>537-180700-
MARINE OBSERVATIONS

STATION/POSITION TIME  TEMP    WIND        PRES
                       AIR SEA DIR/SP/G
                 (UTC) (F)     (DEG/KT/KT) (MB)
THOMAS PT LIGHT  0600   42 39   20/  9/  9   N/A
BALT KEY BRIDGE  0542   43      20/  4/  6 1012.1F
COVE POINT       0542   57     260/ 15/ 19 1011.5F
LEWISETTA        0542   58 44  250/ 16/ 21 1011.6F
SOLOMONS ISLAND  0542   55 42  230/ 19/ 23   N/A
PINEY POINT      0548          240/ 10/ 13   N/A

$$




USA.gov is the U.S. government's official web portal to all federal, state and local government web resources and services.